Regional Weather Roundup
Issued by NWS Burlington, VT

Current Version | Previous Version | Graphics & Text | Print | Product List | Glossary Off
Versions: 1 2 3 4 5 6 7 8 9 10 11 12 13 14 15 16 17 18 19 20 21 22 23 24 25 26 27 28 29 30 31 32 33 34 35 36 37 38 39 40 41 42 43 44 45 46 47 48 49 50

659
ASUS41 KBTV 190910
RWRBTV
VERMONT REGIONAL WEATHER ROUNDUP
NATIONAL WEATHER SERVICE BURLINGTON VT
400 AM EST THU JAN 19 2017

NOTE: "FAIR" INDICATES FEW OR NO CLOUDS BELOW 12,000 FEET WITH NO
SIGNIFICANT WEATHER AND/OR OBSTRUCTIONS TO VISIBILITY.

* THESE REPORTS ARE NOT UNDER NWS QUALITY CONTROL AND/OR DO NOT
  REPORT WEATHER SUCH AS PRECIPITATION AND FOG.

VTZ001>019-191000-
_____VERMONT_____


CITY           SKY/WX    TMP DP  RH WIND       PRES   REMARKS
BURLINGTON     CLOUDY    36  34  92 SW3       29.94S
MONTPELIER     CLOUDY    29  29 100 CALM      29.94F
MORRISVILLE    LGT SNOW  31  30  96 CALM      29.93S FOG
ST. JOHNSBURY*   N/A     30  28  92 MISG      29.92F
LYNDONVILLE*   MIX PCPN  28  28  98 E3        29.93S
MIDDLEBURY*    CLOUDY    36  35  96 S3        29.94R
RUTLAND*       LGT RAIN  35  33  92 S5        29.94F WCI  31
SPRINGFIELD    CLOUDY    31  28  89 CALM      29.95F
HIGHGATE*      CLOUDY    32  32 100 CALM      29.95R FOG
NEWPORT*       LGT SNOW  30  29  96 S3        29.92S
BENNINGTON     CLOUDY    35  33  92 SW6       29.96F WCI  30
SUTTON*          N/A     27 N/A N/A MISG        N/A

_____LAKE CHAMPLAIN_____


CITY           SKY/WX    TMP DP  RH WIND       PRES   REMARKS
BURTON ISLAND*   N/A     34  34 100 SW3         N/A
COLCHESTER RF*   N/A     37  36  93 SW9         N/A  WCI  31
DIAMOND ISL*     N/A     36  34  93 SW1         N/A

$$

NYZ007-026>031-035-052-083-087-191000-
_____NORTHERN NEW YORK_____


CITY           SKY/WX    TMP DP  RH WIND       PRES   REMARKS
PLATTSBURGH    CLOUDY    33  32  96 CALM      29.94S FOG
SARANAC LAKE   CLOUDY    32  30  92 VRB5      29.90R FOG     WCI  27
MASSENA        CLOUDY    35  35 100 SW8       29.96F WCI  29
OGDENSBURG*    CLOUDY    34  34  99 SW6       29.97  FOG     WCI  29
POTSDAM*       LGT RAIN  36  36 100 SW7       29.95F WCI  30
WATERTOWN      LGT RAIN  37  37 100 W9        29.99R VSB 3/4 WCI  30
FT DRUM        DRIZZLE   36  35  96 W12G21    29.96S FOG     WCI  28
ALBANY         CLOUDY    35  33  92 S5        29.99F FOG     WCI  31
GLENS FALLS    CLOUDY    36  33  89 S6        29.96F FOG     WCI  31

$$
NHZ002-005-011-191000-
_____NEW HAMPSHIRE_____


CITY           SKY/WX    TMP DP  RH WIND       PRES   REMARKS
LEBANON        CLOUDY    31  29  92 CALM      29.94F
KEENE          CLOUDY    31  30  96 CALM      29.96F
MT WASHINGTON  DRFTSNOW  18  18 100 W37         N/A  VSB 1/16WCI  -4
PLYMOUTH       CLOUDY    28  27  98 CALM      29.96F
WHITEFIELD     LGT SNOW  29  25  85 CALM      29.91F FOG

$$

_____REGIONAL QUEBEC LOCATIONS_____


CITY           SKY/WX    TMP DP  RH WIND       PRES   REMARKS
MONTREAL       CLOUDY    32  32 100 SW13      29.92S FOG     WCI  22
QUEBEC CITY    FLURRIES  23  21  93 CALM      29.88F
SHERBROOKE     FLURRIES  30  30 100 SW5       29.90S WCI  25

_____REGIONAL ONTARIO LOCATIONS_____


CITY           SKY/WX    TMP DP  RH WIND       PRES   REMARKS
OTTAWA         MOCLDY    32  32 100 SW7       29.93S WCI  26

______KEY______
VSB  - VISIBILITY IN MILES
WCI  - WIND CHILL INDEX
HX   - HEAT INDEX
$$
NNNN




USA.gov is the U.S. government's official web portal to all federal, state and local government web resources and services.